Change the Weather History Date:

Saturday, December 4, 2010

  Actual Average Record
Temperature  
Mean Temperature 45 °F -  
Max Temperature 55 °F - 78 °F (1982)
Min Temperature 35 °F - 14 °F (2006)
Degree Days  
Heating Degree Days 20    
Month to date heating degree days 112  
Since 1 July heating degree days 767  
Cooling Degree Days 0    
Month to date cooling degree days 0  
Year to date cooling degree days 1953  
Moisture  
Dew Point 32 °F    
Average Humidity 65    
Maximum Humidity 76    
Minimum Humidity 54    
Precipitation  
Precipitation T in - 3.80 in (1964)
Month to date precipitation T  
Year to date precipitation 38.48  
Sea Level Pressure  
Sea Level Pressure 29.99 in    
Wind  
Wind Speed 12 mph (North)    
Max Wind Speed 28 mph    
Max Gust Speed 37 mph    
Visibility 10 miles    
Events      
T = Trace of Precipitation, MM = Missing Value Source: NWS Daily Summary

Daily Weather History Graph

Daily Weather History Graph

Search for Another Location

Airport or City:

Trip Planner

Search our weather history database for the weather conditions in past years. The results will help you decide how hot, cold, wet, or windy it might be!

Date:

Astronomy

Dec. 04, 2010 Rise Set
Actual Time 6:46 AM CST 4:33 PM CST
Civil Twilight 6:17 AM CST 5:02 PM CST
Nautical Twilight 5:45 AM CST 5:34 PM CST
Astronomical Twilight 5:14 AM CST 6:05 PM CST
Moon 5:41 AM CST 3:37 PM CST
Length of Visible Light 10h 44m
Length of Day
9h 47m
Waning Crescent, 1% of the Moon is Illuminated
Dec 4
Waning Crescent
Dec 5
New
Dec 13
First Quarter
Dec 21
Full
Dec 27
Last Quarter

Hourly Weather History & Observations

Time (CST) Temp. Windchill Dew Point Humidity Pressure Visibility Wind Dir Wind Speed Gust Speed Precip Events Conditions
12:52 AM 37.9 °F 35.5 °F 28.0 °F 68% 30.06 in 10.0 mi East 3.5 mph - N/A   Partly Cloudy
1:52 AM 37.9 °F 33.5 °F 28.9 °F 70% 30.02 in 10.0 mi ESE 5.8 mph - N/A   Overcast
2:52 AM 39.9 °F 35.8 °F 28.9 °F 65% 29.98 in 10.0 mi ESE 5.8 mph - N/A   Overcast
3:52 AM 41.0 °F 35.8 °F 30.0 °F 65% 29.95 in 10.0 mi ESE 8.1 mph - N/A   Overcast
4:52 AM 41.0 °F 36.4 °F 32.0 °F 70% 29.92 in 10.0 mi ESE 6.9 mph - 0.00 in   Overcast
5:52 AM 41.0 °F 38.0 °F 33.1 °F 73% 29.90 in 10.0 mi East 4.6 mph - N/A   Overcast
6:52 AM 41.0 °F 39.0 °F 34.0 °F 76% 29.88 in 10.0 mi East 3.5 mph - N/A   Overcast
7:52 AM 43.0 °F 41.3 °F 35.1 °F 74% 29.88 in 10.0 mi ENE 3.5 mph - N/A   Overcast
8:52 AM 44.1 °F - 35.1 °F 71% 29.87 in 10.0 mi Calm Calm - N/A   Overcast
9:52 AM 46.0 °F - 37.0 °F 71% 29.87 in 10.0 mi Calm Calm - N/A   Overcast
10:24 AM 50.0 °F - 39.2 °F 66% 29.86 in 10.0 mi WNW 8.1 mph - N/A   Scattered Clouds
10:52 AM 52.0 °F - 42.1 °F 69% 29.86 in 10.0 mi WNW 11.5 mph - N/A   Clear
11:52 AM 55.0 °F - 39.0 °F 55% 29.85 in 10.0 mi NW 17.3 mph 24.2 mph N/A   Clear
12:52 PM 54.0 °F - 37.9 °F 55% 29.86 in 10.0 mi NW 18.4 mph 24.2 mph N/A   Partly Cloudy
1:52 PM 50.0 °F - 35.1 °F 57% 29.90 in 10.0 mi NNW 19.6 mph 27.6 mph N/A   Overcast
2:52 PM 46.0 °F 39.0 °F 34.0 °F 63% 29.95 in 10.0 mi NNW 17.3 mph 26.5 mph N/A   Mostly Cloudy
3:52 PM 43.0 °F 35.1 °F 32.0 °F 65% 30.00 in 9.0 mi NW 17.3 mph 27.6 mph N/A   Overcast
4:52 PM 41.0 °F 30.5 °F 30.0 °F 65% 30.05 in 10.0 mi NNW 26.5 mph 33.4 mph N/A   Overcast
5:39 PM 39.2 °F 29.3 °F 30.2 °F 70% 30.08 in 10.0 mi NNW 20.7 mph 27.6 mph N/A   Overcast
5:52 PM 39.0 °F 29.6 °F 30.0 °F 70% 30.09 in 9.0 mi NNW 18.4 mph 31.1 mph N/A   Overcast
6:52 PM 37.0 °F 27.4 °F 28.9 °F 73% 30.13 in 9.0 mi NW 17.3 mph 29.9 mph N/A   Overcast
7:52 PM 36.0 °F 26.0 °F 28.0 °F 73% 30.15 in 10.0 mi NW 17.3 mph - N/A   Overcast
8:52 PM 35.1 °F 24.8 °F 28.0 °F 76% 30.17 in 10.0 mi NW 17.3 mph 23.0 mph N/A   Overcast
9:52 PM 35.1 °F 24.8 °F 28.0 °F 76% 30.19 in 10.0 mi NNW 17.3 mph 23.0 mph N/A   Overcast
10:52 PM 35.1 °F 27.4 °F 28.0 °F 76% 30.20 in 10.0 mi NNW 10.4 mph 21.9 mph N/A   Overcast
11:52 PM 35.1 °F 24.5 °F 27.0 °F 72% 30.20 in 10.0 mi North 18.4 mph 24.2 mph N/A   Overcast